EDT,Max TemperatureF,Mean TemperatureF,Min TemperatureF,Max Dew PointF,MeanDew PointF,Min DewpointF,Max Humidity, Mean Humidity, Min Humidity, Max Sea Level PressureIn, Mean Sea Level PressureIn, Min Sea Level PressureIn, Max VisibilityMiles, Mean VisibilityMiles, Min VisibilityMiles, Max Wind SpeedMPH, Mean Wind SpeedMPH, Max Gust SpeedMPH,PrecipitationIn, CloudCover, Events, WindDirDegrees
2013-6-1,75,69,62,65,62,60,93,79,64,29.85,29.78,29.71,10,10,8,12,12,16,0.13,6,Rain-Thunderstorm,194
2013-6-2,63,53,43,59,51,39,97,79,61,30.05,29.88,29.72,10,10,10,20,11,24,T,6,Rain,302
2013-6-3,67,53,39,48,42,38,92,66,40,30.13,30.09,30.06,10,10,10,15,5,20,0.00,0,,353
2013-6-4,74,59,43,51,45,40,89,62,35,30.19,30.15,30.11,10,10,10,14,4,22,0.00,0,,82
2013-6-5,76,67,58,50,46,43,64,51,38,30.14,30.04,29.94,10,10,10,16,8,21,0.00,2,,93
2013-6-6,72,64,56,53,49,40,75,59,43,29.94,29.89,29.86,10,10,10,15,7,18,T,5,Rain,45
2013-6-7,73,63,52,54,49,44,89,68,47,29.94,29.90,29.88,10,10,10,17,6,21,0.00,3,,18
2013-6-8,75,62,48,53,49,44,86,65,44,30.03,29.97,29.92,10,10,10,13,4,15,0.00,3,,56
2013-6-9,82,72,61,61,56,50,78,59,39,30.03,29.97,29.86,10,9,6,18,9,24,0.15,4,Rain,137
2013-6-10,76,69,62,65,63,60,93,81,68,29.87,29.79,29.76,10,8,2,15,7,29,0.38,7,Rain,246
2013-6-11,84,72,60,64,61,59,100,74,47,29.94,29.90,29.85,10,5,0,17,4,22,T,4,Fog,259
2013-6-12,89,77,65,73,68,63,93,74,55,29.91,29.77,29.63,10,9,5,23,5,30,0.27,3,Rain-Thunderstorm,187
2013-6-13,74,64,54,63,58,52,93,71,49,30.01,29.80,29.60,10,9,2,25,13,33,0.31,3,Rain-Thunderstorm,336
2013-6-14,78,65,52,59,54,50,93,70,46,30.12,30.06,30.01,10,10,10,15,5,21,0.00,0,,349
2013-6-15,75,66,57,63,59,53,86,74,61,30.09,30.01,29.91,10,10,9,21,6,28,0.02,3,Rain,182
2013-6-16,82,75,67,64,62,54,87,65,42,29.93,29.90,29.87,10,10,10,20,7,23,T,5,Rain-Thunderstorm,264
2013-6-17,87,76,64,65,59,49,93,60,26,29.94,29.91,29.87,10,10,4,22,5,29,0.01,2,Rain-Thunderstorm,244
2013-6-18,77,69,61,61,57,48,90,70,50,30.06,29.97,29.89,10,10,8,16,7,22,0.04,4,Rain,34
2013-6-19,78,66,53,49,45,43,71,51,30,30.17,30.12,30.07,10,10,10,13,3,17,0.00,0,,53
2013-6-20,84,69,54,62,55,48,83,60,36,30.19,30.16,30.12,10,10,10,10,4,13,0.00,2,,165
2013-6-21,87,77,67,67,63,59,84,63,42,30.17,30.12,30.00,10,9,2,25,9,31,0.21,3,Rain-Thunderstorm,195
2013-6-22,84,76,68,72,68,63,90,78,65,30.09,30.05,29.99,10,9,7,13,6,16,0.00,1,,211
2013-6-23,88,77,65,69,65,63,93,68,43,30.07,30.03,29.98,10,10,6,18,8,24,0.00,0,,201
2013-6-24,86,76,66,70,66,63,100,74,48,30.09,30.02,29.93,10,8,1,53,8,67,0.33,3,Rain-Thunderstorm,222
2013-6-25,88,78,67,73,68,64,100,80,59,29.99,29.92,29.81,10,8,1,28,8,45,0.93,5,Rain-Thunderstorm,222
2013-6-26,82,74,65,72,67,63,90,76,62,29.91,29.82,29.73,10,9,4,20,8,24,0.36,5,Rain-Thunderstorm,196
2013-6-27,86,76,65,70,67,64,100,80,59,29.78,29.75,29.68,10,7,0,25,7,35,0.06,2,Fog-Rain-Thunderstorm,308
2013-6-28,80,73,65,64,62,58,93,71,48,29.69,29.64,29.59,10,10,6,17,9,22,0.00,1,,306
2013-6-29,77,69,61,66,62,59,93,77,60,29.73,29.63,29.57,10,9,5,14,5,23,0.21,6,Rain-Thunderstorm,357
2013-6-30,79,71,62,63,60,57,90,69,48,29.96,29.84,29.74,10,10,7,18,7,24,0.02,6,Rain,23